Calgary Springbank, Alberta

12:05 PM MDT on September 28, 2016 (GMT -0600)
Springbank

Weather History for CYBW - September, 2013

Change the Weather History Date:

Sunday, September 22, 2013

  Actual Average Record
Temperature  
Mean Temperature 49 °F -  
Max Temperature 64 °F 58 °F 80 °F (2014)
Min Temperature 34 °F 32 °F 19 °F (2000)
Degree Days  
Heating Degree Days 16    
Moisture  
Dew Point 36 °F    
Average Humidity 56    
Maximum Humidity 81    
Minimum Humidity 32    
Precipitation  
Precipitation 0.00 in - - ()
Sea Level Pressure  
Sea Level Pressure 29.55 in    
Wind  
Wind Speed 7 mph ()    
Max Wind Speed 16 mph    
Max Gust Speed 17 mph    
Visibility 15.8 miles    
Events      
Averages and records for this station are not official NWS values.
T = Trace of Precipitation, MM = Missing Value Source: Averaged Metar Reports

Daily Weather History Graph

Daily Weather History Graph

Search for Another Location

Airport or City:

Trip Planner

Search our weather history database for the weather conditions in past years. The results will help you decide how hot, cold, wet, or windy it might be!

Date:

Astronomy

Sep. 22, 2013 Rise Set
Actual Time 7:24 AM MDT 7:34 PM MDT
Civil Twilight 6:51 AM MDT 8:07 PM MDT
Nautical Twilight 6:12 AM MDT 8:46 PM MDT
Astronomical Twilight 5:31 AM MDT 9:27 PM MDT
Moon 8:59 PM MDT (9/22) 11:15 AM MDT (9/22)
Length of Visible Light 13h 16m
Length of Day
12h 10m
Waning Gibbous, 88% of the Moon is Illuminated
Sep 22
Waning Gibbous
Sep 26
Last Quarter
Oct 4
New
Oct 11
First Quarter
Oct 18
Full

Hourly Weather History & Observations

Time (MDT) Temp. Windchill Dew Point Humidity Pressure Visibility Wind Dir Wind Speed Gust Speed Precip Events Conditions
5:00 AM 44.6 °F 38.1 °F 32.0 °F 61% 29.58 in 15.0 mi West 13.8 mph - N/A   Partly Cloudy
6:00 AM 37 °F - 31 °F 72% 29.61 in 15 mi NW 8.1 mph - -   Scattered Clouds
6:00 AM 37.4 °F 31.4 °F 32.0 °F 81% 29.61 in 15.0 mi NW 8.1 mph - N/A   Partly Cloudy
7:00 AM 44.6 °F 43.1 °F 33.8 °F 66% 29.60 in 20.0 mi Variable 3.5 mph - N/A   Partly Cloudy
8:00 AM 37.4 °F 31.4 °F 32.0 °F 81% 29.64 in 30.0 mi South 8.1 mph - N/A   Scattered Clouds
9:00 AM 44.6 °F - 33.8 °F 66% 29.63 in 30.0 mi Variable 2.3 mph - N/A   Scattered Clouds
10:00 AM 51.8 °F - 37.4 °F 58% 29.59 in 30.0 mi West 2.3 mph - N/A   Scattered Clouds
11:00 AM 55.4 °F - 37.4 °F 51% 29.58 in 30.0 mi Variable 2.3 mph - N/A   Mostly Cloudy
12:00 PM 61 °F - 39 °F 32% 29.55 in 28 mi West 1.2 mph - -   Scattered Clouds
12:00 PM 60.8 °F - 39.2 °F 45% 29.55 in 30.0 mi Variable 2.3 mph - N/A   Mostly Cloudy
1:00 PM 62.6 °F - 37.4 °F 39% 29.53 in 30.0 mi West 4.6 mph - N/A   Scattered Clouds
2:00 PM 64.4 °F - 37.4 °F 37% 29.50 in 40.0 mi SW 9.2 mph - N/A   Scattered Clouds
3:00 PM 64.4 °F - 33.8 °F 32% 29.48 in 40.0 mi SSE 3.5 mph - N/A   Scattered Clouds
4:00 PM 60.8 °F - 37.4 °F 42% 29.49 in 40.0 mi West 4.6 mph - N/A   Scattered Clouds
4:11 PM 60.8 °F - 35.6 °F 39% 29.49 in 40.0 mi SW 10.4 mph 17.3 mph N/A   Scattered Clouds
5:00 PM 60.8 °F - 35.6 °F 39% 29.49 in 40.0 mi WSW 15.0 mph - N/A   Scattered Clouds
5:50 PM 57.2 °F - 39.2 °F 51% 29.52 in 40.0 mi NW 15.0 mph - N/A   Mostly Cloudy
6:00 PM 55 °F - 39 °F 44% 29.54 in 37 mi WNW 15.0 mph - -   Partly Cloudy
6:00 PM 55.4 °F - 39.2 °F 54% 29.54 in 40.0 mi WNW 16.1 mph - N/A   Mostly Cloudy
7:00 PM 50.0 °F - 39.2 °F 66% 29.54 in 40.0 mi West 11.5 mph - N/A   Mostly Cloudy
8:00 PM 48.2 °F - 39.2 °F 71% 29.56 in 30.0 mi North 5.8 mph - N/A   Mostly Cloudy
9:00 PM 46.4 °F 43.5 °F 39.2 °F 76% 29.54 in 15.0 mi NNW 5.8 mph - N/A   Mostly Cloudy
10:00 PM 42.8 °F 38.0 °F 37.4 °F 81% 29.49 in 15.0 mi WNW 8.1 mph - N/A   Mostly Cloudy